User: anonymous   Login
Location: 相模原市立博物館
(35.5593°N, 139.3931°E)
Time: 15:03:07
(UTC+09:00)
Language:

AIST 2D - Orbit

View from above orbital plane
View from above orbital plane
View from above satellite
View from above satellite

Ground track
Ground track

The orbit data is extracted from the following two-line orbital elements,

1 41465U 16026B   22026.70122471  .00006102  00000-0  16449-3 0  9997
2 41465  97.0771 267.9555 0008704 294.1605 149.5696 15.38127415321720
Epoch (UTC): 26 January 2022 16:49:45
Eccentricity: 0.0008704
inclination: 97.0771°
perigee height: 446 km
apogee height: 457 km
right ascension of ascending node: 267.9555°
argument of perigee: 294.1605°
revolutions per day: 15.38127415
mean anomaly at epoch: 149.5696°
orbit number at epoch: 32172

The dashed part of the orbit path shows where the satellite is in the earth's shadow,  

DLR